sat.trackr.live / text

‹ back to catalog

STARLINK-35062

NORAD 65643 · 2025-210X

PAYLOAD ACTIVE UNKNOWN

§ Identity

Operator
Country
US
Launch date
2025-09-18
Launch site
AFETR
Launch vehicle
Mass (kg)
RCS (m²)

Purposes: comms

External: N2YO · Heavens-Above · Gunter

§ Orbital elements

Epoch: 2026-09-20T21:17:42.702720Z

Period
93.85 min
Inclination
53.1579°
Eccentricity
0.0000781
Mean motion
15.34405610 rev/d
Perigee alt
462.2 km
Apogee alt
463.2 km
Semi-major
6,840.8 km
B*
7.3461e-4
RAAN
115.6583°
Arg perigee
87.3298°
Mean anomaly
272.7794°
Rev number
5,768

§ Raw data

STARLINK-350621 65643U 25210X   26263.88729980  .00024529  00000+0  73461-3 0  99992 65643  53.1579 115.6583 0000781  87.3298 272.7794 15.34405610 57681

JSON: /api/v1/satellites/65643 · /tle

For live sub-satellite position, see the globe view (requires WebGL).

§ Visibility from observer

Set your observer location to see the next 7 days of passes ≥ 10°. The values pass through the URL so the page stays shareable.

No JS? Fill the form by hand. The geolocation button needs JavaScript.